Visibility
15.0 15.0 15.0 15.0 15.0 14.8 13.5 13.2 15.0 15.0 15.0 15.0 12.9 7.0 8.0 13.0 14.3 14.5 15.0 14.5 12.2 9.4 8.5 11.1 9.2 15.0 15.0
15.0 15.0 15.0 15.0 15.0 15.0 15.0 5.7 15.0 15.0 13.8 15.0 15.0 15.0 9.6 5.8 11.5 11.4 14.9 15.0 14.8 9.2 10.4 9.0 12.7 15.0 2.6
15.0 15.0 15.0 15.0 14.9 15.0 15.0 15.0 15.0 12.8 9.9 15.0 11.4 15.0 7.7 11.8 2.5 7.1 10.4 14.3 14.1 11.2 6.8 3.4 7.8 2.7 14.0
15.0 15.0 15.0 15.0 15.0 15.0 15.0 15.0 15.0 15.0 15.0 15.0 15.0 15.0 15.0 15.0 9.1 2.9 13.1 15.0 5.1 3.6 2.4 4.6 3.0 9.0 13.4
15.0 15.0 15.0 15.0 15.0 15.0 15.0 15.0 15.0 15.0 15.0 15.0 15.0 15.0 15.0 15.0 7.7 12.1 5.0 6.9 2.7 2.9 3.0 4.4 3.1 6.4 8.0
13.2 15.0 15.0 15.0 15.0 15.0 15.0 15.0 15.0 15.0 13.8 14.8 15.0 9.0 15.0 15.0 15.0 15.0 5.8 3.5 4.0 4.4 2.9 4.0 5.1 5.2 7.1
13.5 13.2 15.0 15.0 15.0 15.0 15.0 15.0 15.0 14.8 0.2 0.7 2.8 0.1 15.0 10.9 9.1 15.0 5.9 3.9 5.5 2.9 3.4 5.4 6.4 8.0 7.3
15.0 15.0 15.0 15.0 15.0 15.0 15.0 15.0 15.0 15.0 10.5 0.0 1.7 0.1 0.1 0.5 13.1 6.8 5.6 5.7 3.9 3.5 4.3 6.2 6.5 5.5 5.6
14.8 10.9 15.0 15.0 12.8 11.8 2.1 4.4 8.9 15.0 0.2 0.1 0.2 0.4 0.1 0.1 1.4 4.1 5.0 5.8 5.0 4.6 5.7 4.5 3.9 8.0 11.5
15.0 15.0 15.0 15.0 15.0 15.0 15.0 0.1 0.1 0.1 0.4 0.0 0.5 12.9 10.6 4.3 0.2 4.0 3.9 3.8 4.0 0.6 0.2 4.3 7.2 14.9 15.0
15.0 15.0 15.0 15.0 13.2 9.8 0.3 0.1 0.1 0.0 14.3 2.9 3.6 2.4 2.1 0.3 0.1 0.1 0.0 0.1 0.1 0.1 4.1 5.2 12.9 15.0 11.9
5.9 9.6 15.0 0.0 0.0 0.0 0.0 0.0 0.0 0.0 7.6 4.7 0.5 2.3 0.1 0.1 0.1 0.1 0.1 0.1 0.1 0.1 10.2 14.4 15.0 15.0 15.0
0.2 10.7 8.3 0.1 0.0 0.1 0.1 0.1 0.1 0.1 0.1 0.1 0.1 0.1 0.1 0.1 0.1 0.1 0.1 0.1 0.1 1.3 8.9 11.8 15.0 15.0 15.0
0.1 0.3 1.9 1.2 0.1 0.1 0.1 0.1 0.1 0.1 0.1 0.1 0.1 0.1 0.1 0.1 0.1 0.1 0.1 0.3 0.6 1.6 13.4 15.0 15.0 15.0 15.0
0.1 0.2 1.4 0.3 0.1 0.1 0.1 0.1 0.1 0.1 0.1 0.1 0.1 0.7 1.8 3.8 1.7 1.5 1.8 3.2 13.5 15.0 15.0 15.0 15.0 15.0 15.0
0.1 0.5 0.1 0.1 0.1 0.1 0.1 0.1 0.1 0.1 0.1 0.1 0.7 1.2 2.2 13.0 13.4 15.0 15.0 15.0 15.0 15.0 15.0 15.0 15.0 15.0 15.0
0.1 0.1 0.1 0.1 0.1 0.1 0.1 0.1 0.1 0.1 0.9 1.1 2.3 5.3 14.9 15.0 15.0 15.0 15.0 15.0 15.0 15.0 15.0 15.0 15.0 15.0 15.0